Weather History for The Villages, FL

Change the Weather History Date:

Saturday, March 22, 2014

  Actual Average (KLEE) Record (KLEE)
Temperature  
Mean Temperature 72 °F -  
Max Temperature 80 °F 77 °F 87 °F (1977)
Min Temperature 64 °F 53 °F 33 °F (1960)
Cooling Degree Days 7    
Growing Degree Days 22 (Base 50)    
Moisture  
Dew Point 59 °F    
Average Humidity 68    
Maximum Humidity 94    
Minimum Humidity 37    
Precipitation  
Precipitation 0.00 in - - ()
Sea Level Pressure  
Sea Level Pressure 30.04 in    
Wind  
Wind Speed 4 mph (SW)    
Max Wind Speed 14 mph    
Max Gust Speed 21 mph    
Visibility 10 miles    
Events      
Averages and records for this station are not official NWS values.
T = Trace of Precipitation, MM = Missing Value Source: NWS Daily Summary

Daily Weather History Graph

Daily Weather History Graph

Search for Another Location

Airport:

Trip Planner

Search our weather history database for the weather conditions in past years. The results will help you decide how hot, cold, wet, or windy it might be!

Date:

Astronomy

Mar. 22, 2014 Rise Set
Actual Time 7:29 AM EDT 7:40 PM EDT
Civil Twilight 7:05 AM EDT 8:04 PM EDT
Nautical Twilight 6:38 AM EDT 8:31 PM EDT
Astronomical Twilight 6:10 AM EDT 8:59 PM EDT
Moon 12:36 AM EDT 11:34 AM EDT
Length of Visible Light 12h 58m
Length of Day
12h 11m
Waning Gibbous, 65% of the Moon is Illuminated
Mar 22
Waning Gibbous
Mar 23
Last Quarter
Mar 30
New
Apr 7
First Quarter
Apr 15
Full

Hourly Weather History & Observations

Time (EDT) Temp. Heat Index Dew Point Humidity Pressure Visibility Wind Dir Wind Speed Gust Speed Precip Events Conditions
12:15 AM 66.2 °F - 60.8 °F 83% 30.08 in 10.0 mi Calm Calm - N/A   Unknown
12:35 AM 64.4 °F - 60.8 °F 88% 30.07 in 10.0 mi Calm Calm - N/A   Unknown
12:55 AM 66.2 °F - 60.8 °F 83% 30.07 in 10.0 mi Calm Calm - N/A   Unknown
1:15 AM 66.2 °F - 62.6 °F 88% 30.07 in 10.0 mi Calm Calm - N/A   Unknown
1:35 AM 66.2 °F - 60.8 °F 83% 30.06 in 10.0 mi ENE 4.6 mph - N/A   Unknown
1:55 AM 66.2 °F - 60.8 °F 83% 30.06 in 10.0 mi Calm Calm - N/A   Unknown
2:15 AM 66.2 °F - 62.6 °F 88% 30.05 in 10.0 mi Calm Calm - N/A   Unknown
2:35 AM 66.2 °F - 60.8 °F 83% 30.05 in 10.0 mi Calm Calm - N/A   Unknown
2:55 AM 66.2 °F - 60.8 °F 83% 30.04 in 10.0 mi Calm Calm - N/A   Unknown
3:15 AM 66.2 °F - 60.8 °F 83% 30.04 in 10.0 mi Calm Calm - N/A   Unknown
3:35 AM 66.2 °F - 62.6 °F 88% 30.03 in 10.0 mi Calm Calm - N/A   Unknown
3:55 AM 66.2 °F - 62.6 °F 88% 30.03 in 10.0 mi Calm Calm - N/A   Unknown
4:15 AM 66.2 °F - 62.6 °F 88% 30.03 in 10.0 mi Calm Calm - N/A   Unknown
4:35 AM 64.4 °F - 62.6 °F 94% 30.03 in 10.0 mi Calm Calm - N/A   Unknown
4:55 AM 66.2 °F - 62.6 °F 88% 30.03 in 10.0 mi Calm Calm - N/A   Unknown
5:15 AM 66.2 °F - 62.6 °F 88% 30.03 in 10.0 mi Calm Calm - N/A   Unknown
5:35 AM 66.2 °F - 62.6 °F 88% 30.03 in 10.0 mi Calm Calm - N/A   Unknown
5:55 AM 66.2 °F - 62.6 °F 88% 30.03 in 10.0 mi Calm Calm - N/A   Unknown
6:15 AM 66.2 °F - 64.4 °F 94% 30.03 in 10.0 mi Calm Calm - N/A   Unknown
6:35 AM 68.0 °F - 64.4 °F 88% 30.04 in 10.0 mi SE 3.5 mph - N/A   Unknown
6:55 AM 68.0 °F - 64.4 °F 88% 30.04 in 10.0 mi SE 6.9 mph - N/A   Unknown
7:15 AM 69.8 °F - 64.4 °F 83% 30.04 in 10.0 mi SSE 6.9 mph - N/A   Unknown
7:35 AM 68.0 °F - 64.4 °F 88% 30.04 in 10.0 mi SSE 9.2 mph - N/A   Unknown
7:55 AM 68.0 °F - 64.4 °F 88% 30.05 in 10.0 mi Calm Calm - N/A   Unknown
8:15 AM 69.8 °F - 64.4 °F 83% 30.05 in 10.0 mi SSE 3.5 mph - N/A   Unknown
8:35 AM 69.8 °F - 66.2 °F 88% 30.06 in 10.0 mi SSE 6.9 mph - N/A   Unknown
8:55 AM 69.8 °F - 66.2 °F 88% 30.06 in 10.0 mi South 5.8 mph - N/A   Unknown
9:15 AM 71.6 °F - 66.2 °F 83% 30.07 in 10.0 mi SSE 6.9 mph - N/A   Unknown
9:35 AM 71.6 °F - 64.4 °F 78% 30.07 in 10.0 mi South 8.1 mph - N/A   Unknown
9:55 AM 71.6 °F - 64.4 °F 78% 30.08 in 10.0 mi South 9.2 mph - N/A   Unknown
10:15 AM 73.4 °F - 64.4 °F 73% 30.08 in 10.0 mi South 8.1 mph - N/A   Unknown
10:35 AM 73.4 °F - 64.4 °F 73% 30.08 in 10.0 mi SSW 8.1 mph - N/A   Unknown
10:55 AM 75.2 °F - 64.4 °F 69% 30.08 in 10.0 mi West 11.5 mph - N/A   Unknown
11:15 AM 75.2 °F - 64.4 °F 69% 30.08 in 10.0 mi SW 10.4 mph - N/A   Unknown
11:35 AM 75.2 °F - 64.4 °F 69% 30.07 in 10.0 mi SW 8.1 mph - N/A   Unknown
11:55 AM 75.2 °F - 64.4 °F 69% 30.07 in 10.0 mi SW 10.4 mph - N/A   Unknown
12:15 PM 78.8 °F - 64.4 °F 61% 30.06 in 10.0 mi WSW 11.5 mph 19.6 mph N/A   Unknown
12:35 PM 77.0 °F - 62.6 °F 61% 30.06 in 10.0 mi West 10.4 mph 16.1 mph N/A   Unknown
12:55 PM 78.8 °F - 62.6 °F 57% 30.05 in 10.0 mi WSW 11.5 mph 17.3 mph N/A   Unknown
1:15 PM 80.6 °F 81.5 °F 60.8 °F 51% 30.04 in 10.0 mi SW 10.4 mph - N/A   Unknown
1:35 PM 80.6 °F 81.5 °F 60.8 °F 51% 30.03 in 10.0 mi WSW 4.6 mph - N/A   Unknown
1:55 PM 80.6 °F 81.1 °F 59.0 °F 48% 30.02 in 10.0 mi WSW 9.2 mph - N/A   Unknown
2:15 PM 80.6 °F 80.8 °F 57.2 °F 45% 30.01 in 10.0 mi SW 11.5 mph 20.7 mph N/A   Unknown
2:35 PM 80.6 °F 80.8 °F 57.2 °F 45% 30.00 in 10.0 mi West 11.5 mph 18.4 mph N/A   Unknown
2:55 PM 80.6 °F 80.8 °F 57.2 °F 45% 29.99 in 10.0 mi West 10.4 mph - N/A   Unknown
3:15 PM 80.6 °F 80.8 °F 57.2 °F 45% 29.99 in 10.0 mi WSW 8.1 mph 17.3 mph N/A   Unknown
3:35 PM 80.6 °F 80.5 °F 55.4 °F 42% 29.98 in 10.0 mi SW 10.4 mph - N/A   Unknown
3:55 PM 80.6 °F 80.5 °F 55.4 °F 42% 29.97 in 10.0 mi South 5.8 mph - N/A   Unknown
4:15 PM 80.6 °F 80.3 °F 53.6 °F 39% 29.97 in 10.0 mi WSW 5.8 mph 19.6 mph N/A   Unknown
4:35 PM 80.6 °F 80.3 °F 53.6 °F 39% 29.98 in 10.0 mi SSW 11.5 mph - N/A   Unknown
4:55 PM 80.6 °F 80.3 °F 53.6 °F 39% 29.98 in 10.0 mi SW 10.4 mph 18.4 mph N/A   Unknown
5:15 PM 80.6 °F - 51.8 °F 37% 29.98 in 10.0 mi West 11.5 mph 20.7 mph N/A   Unknown
5:35 PM 78.8 °F - 51.8 °F 39% 29.99 in 10.0 mi West 13.8 mph 20.7 mph N/A   Unknown
5:55 PM 77.0 °F - 50.0 °F 39% 29.99 in 10.0 mi West 13.8 mph 19.6 mph N/A   Unknown
6:15 PM 75.2 °F - 50.0 °F 41% 30.00 in 10.0 mi West 10.4 mph 17.3 mph N/A   Unknown
6:35 PM 75.2 °F - 48.2 °F 38% 30.00 in 10.0 mi WSW 9.2 mph 18.4 mph N/A   Unknown
6:55 PM 73.4 °F - 48.2 °F 41% 30.01 in 10.0 mi WSW 8.1 mph - N/A   Unknown
7:15 PM 73.4 °F - 48.2 °F 41% 30.01 in 10.0 mi WSW 10.4 mph - N/A   Unknown
7:35 PM 71.6 °F - 50.0 °F 46% 30.02 in 10.0 mi West 5.8 mph - N/A   Unknown
7:55 PM 69.8 °F - 51.8 °F 53% 30.03 in 10.0 mi West 5.8 mph - N/A   Unknown
8:15 PM 69.8 °F - 50.0 °F 49% 30.03 in 10.0 mi WSW 8.1 mph - N/A   Unknown
8:35 PM 69.8 °F - 50.0 °F 49% 30.03 in 10.0 mi WSW 5.8 mph - N/A   Unknown
8:55 PM 69.8 °F - 51.8 °F 53% 30.03 in 10.0 mi Calm Calm - N/A   Unknown
9:15 PM 68.0 °F - 51.8 °F 56% 30.04 in 10.0 mi Calm Calm - N/A   Unknown
9:35 PM 68.0 °F - 53.6 °F 60% 30.05 in 10.0 mi WSW 6.9 mph - N/A   Unknown
9:55 PM 66.2 °F - 55.4 °F 68% 30.05 in 10.0 mi West 3.5 mph - N/A   Light Drizzle
10:15 PM 66.2 °F - 57.2 °F 73% 30.05 in 10.0 mi Calm Calm - N/A   Unknown
10:35 PM 66.2 °F - 57.2 °F 73% 30.05 in 10.0 mi Calm Calm - N/A   Unknown
10:55 PM 66.2 °F - 57.2 °F 73% 30.06 in 10.0 mi Calm Calm - N/A   Unknown
11:15 PM 66.2 °F - 59.0 °F 78% 30.06 in 10.0 mi West 5.8 mph - N/A   Unknown
11:35 PM 66.2 °F - 59.0 °F 78% 30.05 in 10.0 mi SW 5.8 mph - N/A   Unknown
11:55 PM 66.2 °F - 59.0 °F 78% 30.05 in 10.0 mi WSW 4.6 mph - N/A   Unknown